Weather Roundup
Issued by NWS Chicago, IL

Home | Current Version | Previous Version | Text Only | Print | Product List | Glossary Off
Versions: 1 2 3 4 5 6 7 8 9 10 11 12 13 14 15 16 17 18 19 20 21 22 23 24 25 26 27 28 29 30 31 32 33 34 35 36 37 38 39 40 41 42 43 44 45 46 47 48 49 50

000
NZUS59 KLOT 280810
HRRLOT

CHICAGO AREA WEATHER ROUNDUP
NATIONAL WEATHER SERVICE CHICAGO/ROMEOVILLE IL
200 AM CST FRI NOV 28 2014

NOTE: "FAIR" INDICATES FEW OR NO CLOUDS BELOW 12,000 FEET WITH NO
SIGNIFICANT WEATHER AND/OR OBSTRUCTIONS TO VISIBILITY.

* THESE STATIONS ARE NOT UNDER NWS QUALITY CONTROL. THEY ALSO MAY NOT
  REPORT WEATHER SUCH AS PRECIPITATION OR FOG.

ILZ005-006-012>014-019>023-280900-
NORTHEAST ILLINOIS

CITY           SKY/WX    TMP DP  RH WIND       PRES   REMARKS
OHARE          MOCLDY    19  11  70 CALM      30.37R
MIDWAY         CLOUDY    21  11  65 SW5       30.38R WCI  15
AURORA         CLOUDY    15   8  73 CALM      30.37S
LANSING*       MOCLDY    19  13  77 SW3       30.39R
JOLIET*        MOCLDY    16  10  77 CALM      30.39S
WAUKEGAN       MOCLDY    14  10  84 CALM      30.36R
DUPAGE AIRPORT MOCLDY    16  13  88 W3        30.36R
WHEELING       CLOUDY    18  10  71 CALM      30.38S
KANKAKEE*      MOCLDY   N/A N/A N/A W7        30.40R
MORRIS*        MOCLDY    16  13  86 SW3       30.38S
LEWIS AIRPORT* MOCLDY    17  12  83 W3        30.38R
NORTHERLY IS     N/A     21   9  59 SW6         N/A  WCI  14
$$

WIZ051-052-058>065-066-070>072-280900-
SOUTHEAST WISCONSIN

CITY           SKY/WX    TMP DP  RH WIND       PRES   REMARKS
MILWAUKEE      MOCLDY    15   7  70 W3        30.35S
KENOSHA*       MOCLDY    13   9  84 W5        30.36R WCI   5
RACINE*        PTCLDY    13   8  81 W5        30.37S WCI   5
BURLINGTON     MOCLDY    10   8  90 SW3       30.34S
WAUKESHA       MOCLDY    12   9  85 CALM      30.34R
WEST BEND      CLOUDY    10   5  79 CALM      30.33R
$$

INZ001>003-010>013-019-020-280900-
NORTHWEST INDIANA

CITY           SKY/WX    TMP DP  RH WIND       PRES   REMARKS
GARY*          PTCLDY    21  14  75 CALM      30.38R
MICHIGAN CITY* NOT AVBL
RENSSELAER*    NOT AVBL
VALPARAISO     PTCLDY    16  13  88 SW5       30.36R WCI   9
$$

LMZ740>746-280900-
SOUTHERN LAKE MICHIGAN

STATION/POSITION TIME  SKY/WX   TEMP WIND        PRES    VSBY
                                AIR  DIR/SP/G
                 (UTC)          (F)  (DEG/KT/KT) (MB)    (MI)
HARRISON CRIB    0800            21  270/  4/  6   N/A
BURNHAM HARBOR   0800            21  260/  3/  6   N/A
CALUMET HARBOR   0800            20  220/  4/  5 1027.1R
BURNS HARBOR     NOT AVBL
MICHIGAN CITY    0800            22  150/  5/  6   N/A
$$

ABBREVIATIONS USED IN REMARKS
   TC - TEMPERATURE IN CELSIUS
  WCI - WIND CHILL INDEX
   HX - HEAT INDEX
  VSB - VISIBILITY
$$



USA.gov is the U.S. government's official web portal to all federal, state and local government web resources and services.